Home > Time Zones > World Clock > Weather > Spain > Jaén > Past weeks

Flag for Spain Weather past 2 weeks in Jaén, Spain

Now
59 °F

Passing clouds.


Feels Like: 56 °F
Forecast: 33 / 67 °F
Wind: 15 mph from South

Location: Granada / Aeropuerto

Current Time: Mar 5, 2015 at 5:41:03 PM

Latest Report: Mar 5, 2015 at 5:00 PM


Visibility: N/A

Pressure: 30.30 "Hg

Humidity: 42%

Dew point: 36 °F

Location of JaénLocation

Historic Weather in Jaén — Graph

°F

Jaén temperature yesterday

Maximum temperature yesterday: 73 °F (at 3:30 PM)
Minimum temperature yesterday: 46 °F (at 6:00 AM)
Average temperature yesterday: 60 °F

Past Weeks' High & Low Weather Summary

 TemperatureHumidityPressure
High79 °F (Mar 2, 4:00 PM)100% (Feb 20, 6:00 AM)30.45 "Hg (Feb 20, 6:00 AM)
Low30 °F (Feb 20, 6:00 AM)29% (Feb 25, 3:30 PM)29.83 "Hg (Feb 21, 2:30 PM)
Average52 °F67%30.22 "Hg
* Reported Feb 18 4:00 PM — Mar 5 4:30 PM, Jaén, Weather by CustomWeather, © 2015

Note: Actual official high and low records may vary slightly from our data, if they occured in-between our weather recording intervals... More about our weather records

Advertising

Jaén weather history for previous 24 hours

 ConditionsComfort  
Time TempWeatherWind HumidityBarometerVisibility
4:30 PM
Thu, Mar 5
59 °FPassing clouds.15 mph42%30.30 "HgN/A
4:00 PM61 °FPassing clouds.15 mph39%30.33 "HgN/A
3:30 PM61 °FPassing clouds.15 mph36%30.33 "HgN/A
3:00 PM61 °FPassing clouds.14 mph39%30.33 "HgN/A
2:30 PM61 °FPassing clouds.13 mph39%30.33 "HgN/A
2:00 PM63 °FPassing clouds.10 mph42%30.36 "HgN/A
1:30 PM61 °FPassing clouds.1 mph34%30.36 "HgN/A
1:00 PM59 °FPassing clouds.2 mph31%30.39 "HgN/A
12:30 PM57 °FPassing clouds.1 mph36%30.39 "HgN/A
12:00 PM57 °FSunny.1 mph29%30.39 "Hg10 mi
11:30 AM55 °FSunny.No wind33%30.42 "Hg10 mi
11:00 AM54 °FSunny.1 mph33%30.42 "Hg10 mi
10:30 AM52 °FSunny.No wind35%30.42 "Hg10 mi
10:00 AM50 °FSunny.No wind37%30.42 "Hg10 mi
9:30 AM48 °FSunny.1 mph37%30.42 "Hg10 mi
9:00 AM46 °FSunny.No wind43%30.42 "Hg10 mi
8:30 AM43 °FSunny.No wind53%30.39 "Hg10 mi
8:00 AM41 °FSunny.2 mph49%30.39 "Hg10 mi
7:30 AM45 °FPassing clouds.5 mph34%30.36 "HgN/A
7:00 AM45 °FPassing clouds.3 mph42%30.36 "HgN/A
6:30 AM46 °FClear.2 mph34%30.39 "Hg10 mi
6:00 AM46 °FPassing clouds.8 mph37%30.36 "HgN/A
11:00 PM
Wed, Mar 4
57 °FPassing clouds.7 mph48%30.36 "HgN/A
10:00 PM57 °FPassing clouds.6 mph51%30.36 "HgN/A
9:30 PM61 °FPassing clouds.8 mph42%30.33 "HgN/A
9:00 PM61 °FPassing clouds.14 mph42%30.33 "HgN/A
8:30 PM63 °FPassing clouds.12 mph39%30.33 "HgN/A
8:00 PM64 °FPassing clouds.12 mph40%30.30 "HgN/A
7:30 PM66 °FPassing clouds.12 mph40%30.30 "HgN/A
7:00 PM66 °FPassing clouds.10 mph43%30.30 "HgN/A
6:30 PM70 °FPassing clouds.10 mph35%30.27 "HgN/A
6:00 PM72 °FPassing clouds.9 mph33%30.27 "HgN/A
5:30 PM72 °FPassing clouds.12 mph33%30.27 "HgN/A
5:00 PM73 °FPassing clouds.9 mph33%30.27 "HgN/A
Weather by CustomWeather, © 2015

See weather overviewHow to use our weather pages